Year,Month,Day,Hour,Minute,Value (Times are PST for temperature in C)
2007,10,30,00,00,4.30
2007,10,30,00,01,4.30
2007,10,30,00,02,4.30
2007,10,30,00,03,4.30
2007,10,30,00,04,4.20
2007,10,30,00,05,4.20
2007,10,30,00,06,4.20
2007,10,30,00,07,4.10
2007,10,30,00,08,4.10
2007,10,30,00,09,4.10
2007,10,30,00,10,4.00
2007,10,30,00,11,4.00
2007,10,30,00,12,4.00
2007,10,30,00,13,4.00
2007,10,30,00,14,4.00
2007,10,30,00,15,4.10
2007,10,30,00,16,4.10
2007,10,30,00,17,4.20
2007,10,30,00,18,4.30
2007,10,30,00,19,4.30
2007,10,30,00,20,4.40
2007,10,30,00,21,4.40
2007,10,30,00,22,4.40
2007,10,30,00,23,4.40
2007,10,30,00,24,4.40
2007,10,30,00,25,4.40
2007,10,30,00,26,4.40
2007,10,30,00,27,4.40
2007,10,30,00,28,4.40
2007,10,30,00,29,4.40
2007,10,30,00,30,4.30
2007,10,30,00,31,4.30
2007,10,30,00,32,4.30
2007,10,30,00,33,4.20
2007,10,30,00,34,4.20
2007,10,30,00,35,4.10
2007,10,30,00,36,4.10
2007,10,30,00,37,4.10
2007,10,30,00,38,4.00
2007,10,30,00,39,4.00
2007,10,30,00,40,4.00
2007,10,30,00,41,4.00
2007,10,30,00,42,4.00
2007,10,30,00,43,4.00
2007,10,30,00,44,4.00
2007,10,30,00,45,4.10
2007,10,30,00,46,4.10
2007,10,30,00,47,4.10
2007,10,30,00,48,4.20
2007,10,30,00,49,4.20
2007,10,30,00,50,4.20
2007,10,30,00,51,4.20
2007,10,30,00,52,4.30
2007,10,30,00,53,4.20
2007,10,30,00,54,4.20
2007,10,30,00,55,4.20
2007,10,30,00,56,4.20
2007,10,30,00,57,4.20
2007,10,30,00,58,4.20
2007,10,30,00,59,4.20
2007,10,30,01,00,4.10
2007,10,30,01,01,4.10
2007,10,30,01,02,4.10
2007,10,30,01,03,4.10
2007,10,30,01,04,4.10
2007,10,30,01,05,4.10
2007,10,30,01,06,4.10
2007,10,30,01,07,4.10
2007,10,30,01,08,4.10
2007,10,30,01,09,4.10
2007,10,30,01,10,4.10
2007,10,30,01,11,4.00
2007,10,30,01,12,4.00
2007,10,30,01,13,4.00
2007,10,30,01,14,4.00
2007,10,30,01,15,3.90
2007,10,30,01,16,3.90
2007,10,30,01,17,3.90
2007,10,30,01,18,3.90
2007,10,30,01,19,3.90
2007,10,30,01,20,3.90
2007,10,30,01,21,3.90
2007,10,30,01,22,3.90
2007,10,30,01,23,3.90
2007,10,30,01,24,3.90
2007,10,30,01,25,3.90
2007,10,30,01,26,3.80
2007,10,30,01,27,3.80
2007,10,30,01,28,3.80
2007,10,30,01,29,3.70
2007,10,30,01,30,3.70
2007,10,30,01,31,3.70
2007,10,30,01,32,3.60
2007,10,30,01,33,3.60
2007,10,30,01,34,3.60
2007,10,30,01,35,3.50
2007,10,30,01,36,3.50
2007,10,30,01,37,3.40
2007,10,30,01,38,3.40
2007,10,30,01,39,3.30
2007,10,30,01,40,3.30
2007,10,30,01,41,3.30
2007,10,30,01,42,3.20
2007,10,30,01,43,3.20
2007,10,30,01,44,3.20
2007,10,30,01,45,3.20
2007,10,30,01,46,3.20
2007,10,30,01,47,3.10
2007,10,30,01,48,3.10
2007,10,30,01,49,3.10
2007,10,30,01,50,3.10
2007,10,30,01,51,3.10
2007,10,30,01,52,3.10
2007,10,30,01,53,3.10
2007,10,30,01,54,3.10
2007,10,30,01,55,3.20
2007,10,30,01,56,3.20
2007,10,30,01,57,3.30
2007,10,30,01,58,3.40
2007,10,30,01,59,3.50
2007,10,30,02,00,3.60
2007,10,30,02,01,3.70
2007,10,30,02,02,3.80
2007,10,30,02,03,3.90
2007,10,30,02,04,4.00
2007,10,30,02,05,4.10
2007,10,30,02,06,4.20
2007,10,30,02,07,4.30
2007,10,30,02,08,4.30
2007,10,30,02,09,4.40
2007,10,30,02,10,4.40
2007,10,30,02,11,4.40
2007,10,30,02,12,4.50
2007,10,30,02,13,4.50
2007,10,30,02,14,4.50
2007,10,30,02,15,4.50
2007,10,30,02,16,4.50
2007,10,30,02,17,4.50
2007,10,30,02,18,4.50
2007,10,30,02,19,4.60
2007,10,30,02,20,4.60
2007,10,30,02,21,4.60
2007,10,30,02,22,4.60
2007,10,30,02,23,4.60
2007,10,30,02,24,4.60
2007,10,30,02,25,4.70
2007,10,30,02,26,4.70
2007,10,30,02,27,4.70
2007,10,30,02,28,4.70
2007,10,30,02,29,4.70
2007,10,30,02,30,4.70
2007,10,30,02,31,4.70
2007,10,30,02,32,4.70
2007,10,30,02,33,4.70
2007,10,30,02,34,4.70
2007,10,30,02,35,4.70
2007,10,30,02,36,4.70
2007,10,30,02,37,4.70
2007,10,30,02,38,4.70
2007,10,30,02,39,4.70
2007,10,30,02,40,4.70
2007,10,30,02,41,4.70
2007,10,30,02,42,4.80
2007,10,30,02,43,4.80
2007,10,30,02,44,4.80
2007,10,30,02,45,4.80
2007,10,30,02,46,4.80
2007,10,30,02,47,4.80
2007,10,30,02,48,4.80
2007,10,30,02,49,4.80
2007,10,30,02,50,4.80
2007,10,30,02,51,4.70
2007,10,30,02,52,4.70
2007,10,30,02,53,4.70
2007,10,30,02,54,4.70
2007,10,30,02,55,4.70
2007,10,30,02,56,4.60
2007,10,30,02,57,4.50
2007,10,30,02,58,4.30
2007,10,30,02,59,4.20
2007,10,30,03,00,4.10
2007,10,30,03,01,3.90
2007,10,30,03,02,3.80
2007,10,30,03,03,3.60
2007,10,30,03,04,3.50
2007,10,30,03,05,3.40
2007,10,30,03,06,3.30
2007,10,30,03,07,3.20
2007,10,30,03,08,3.10
2007,10,30,03,09,3.00
2007,10,30,03,10,3.00
2007,10,30,03,11,2.90
2007,10,30,03,12,2.90
2007,10,30,03,13,2.80
2007,10,30,03,14,2.80
2007,10,30,03,15,2.80
2007,10,30,03,16,2.80
2007,10,30,03,17,2.80
2007,10,30,03,18,2.80
2007,10,30,03,19,2.80
2007,10,30,03,20,2.70
2007,10,30,03,21,2.70
2007,10,30,03,22,2.70
2007,10,30,03,23,2.80
2007,10,30,03,24,2.80
2007,10,30,03,25,2.80
2007,10,30,03,26,2.80
2007,10,30,03,27,2.80
2007,10,30,03,28,2.80
2007,10,30,03,29,2.80
2007,10,30,03,30,2.80
2007,10,30,03,31,2.80
2007,10,30,03,32,2.90
2007,10,30,03,33,2.90
2007,10,30,03,34,3.00
2007,10,30,03,35,3.10
2007,10,30,03,36,3.10
2007,10,30,03,37,3.10
2007,10,30,03,38,3.20
2007,10,30,03,39,3.20
2007,10,30,03,40,3.20
2007,10,30,03,41,3.30
2007,10,30,03,42,3.30
2007,10,30,03,43,3.30
2007,10,30,03,44,3.30
2007,10,30,03,45,3.20
2007,10,30,03,46,3.20
2007,10,30,03,47,3.10
2007,10,30,03,48,3.10
2007,10,30,03,49,3.00
2007,10,30,03,50,3.00
2007,10,30,03,51,2.90
2007,10,30,03,52,2.90
2007,10,30,03,53,2.90
2007,10,30,03,54,2.80
2007,10,30,03,55,2.80
2007,10,30,03,56,2.80
2007,10,30,03,57,2.80
2007,10,30,03,58,2.80
2007,10,30,03,59,2.80
2007,10,30,04,00,2.80
2007,10,30,04,01,2.80
2007,10,30,04,02,2.70
2007,10,30,04,03,2.70
2007,10,30,04,04,2.70
2007,10,30,04,05,2.70
2007,10,30,04,06,2.70
2007,10,30,04,07,2.70
2007,10,30,04,08,2.70
2007,10,30,04,09,2.70
2007,10,30,04,10,2.80
2007,10,30,04,11,2.80
2007,10,30,04,12,2.80
2007,10,30,04,13,2.90
2007,10,30,04,14,3.00
2007,10,30,04,15,3.00
2007,10,30,04,16,3.00
2007,10,30,04,17,3.10
2007,10,30,04,18,3.00
2007,10,30,04,19,3.00
2007,10,30,04,20,2.90
2007,10,30,04,21,2.90
2007,10,30,04,22,2.80
2007,10,30,04,23,2.80
2007,10,30,04,24,2.80
2007,10,30,04,25,2.80
2007,10,30,04,26,2.70
2007,10,30,04,27,2.70
2007,10,30,04,28,2.70
2007,10,30,04,29,2.60
2007,10,30,04,30,2.60
2007,10,30,04,31,2.50
2007,10,30,04,32,2.50
2007,10,30,04,33,2.40
2007,10,30,04,34,2.30
2007,10,30,04,35,2.30
2007,10,30,04,36,2.30
2007,10,30,04,37,2.20
2007,10,30,04,38,2.20
2007,10,30,04,39,2.10
2007,10,30,04,40,2.10
2007,10,30,04,41,2.00
2007,10,30,04,42,2.00
2007,10,30,04,43,1.90
2007,10,30,04,44,1.90
2007,10,30,04,45,1.90
2007,10,30,04,46,1.80
2007,10,30,04,47,1.80
2007,10,30,04,48,1.80
2007,10,30,04,49,1.70
2007,10,30,04,50,1.70
2007,10,30,04,51,1.70
2007,10,30,04,52,1.70
2007,10,30,04,53,1.60
2007,10,30,04,54,1.60
2007,10,30,04,55,1.60
2007,10,30,04,56,1.60
2007,10,30,04,57,1.60
2007,10,30,04,58,1.70
2007,10,30,04,59,1.70
2007,10,30,05,00,1.80
2007,10,30,05,01,1.90
2007,10,30,05,02,2.00
2007,10,30,05,03,2.00
2007,10,30,05,04,2.10
2007,10,30,05,05,2.20
2007,10,30,05,06,2.30
2007,10,30,05,07,2.30
2007,10,30,05,08,2.40
2007,10,30,05,09,2.40
2007,10,30,05,10,2.40
2007,10,30,05,11,2.40
2007,10,30,05,12,2.50
2007,10,30,05,13,2.50
2007,10,30,05,14,2.50
2007,10,30,05,15,2.50
2007,10,30,05,16,2.50
2007,10,30,05,17,2.50
2007,10,30,05,18,2.50
2007,10,30,05,19,2.40
2007,10,30,05,20,2.40
2007,10,30,05,21,2.40
2007,10,30,05,22,2.30
2007,10,30,05,23,2.30
2007,10,30,05,24,2.20
2007,10,30,05,25,2.20
2007,10,30,05,26,2.10
2007,10,30,05,27,2.00
2007,10,30,05,28,1.90
2007,10,30,05,29,1.90
2007,10,30,05,30,1.80
2007,10,30,05,31,1.70
2007,10,30,05,32,1.60
2007,10,30,05,33,1.60
2007,10,30,05,34,1.50
2007,10,30,05,35,1.50
2007,10,30,05,36,1.50
2007,10,30,05,37,1.60
2007,10,30,05,38,1.60
2007,10,30,05,39,1.70
2007,10,30,05,40,1.70
2007,10,30,05,41,1.80
2007,10,30,05,42,1.80
2007,10,30,05,43,1.90
2007,10,30,05,44,1.90
2007,10,30,05,45,1.90
2007,10,30,05,46,1.90
2007,10,30,05,47,1.90
2007,10,30,05,48,2.00
2007,10,30,05,49,2.00
2007,10,30,05,50,1.90
2007,10,30,05,51,1.90
2007,10,30,05,52,2.00
2007,10,30,05,53,2.00
2007,10,30,05,54,2.00
2007,10,30,05,55,2.00
2007,10,30,05,56,2.00
2007,10,30,05,57,2.00
2007,10,30,05,58,2.00
2007,10,30,05,59,2.00
2007,10,30,06,00,2.00
2007,10,30,06,01,2.00
2007,10,30,06,02,2.00
2007,10,30,06,03,1.90
2007,10,30,06,04,1.90
2007,10,30,06,05,1.90
2007,10,30,06,06,1.90
2007,10,30,06,07,2.00
2007,10,30,06,08,2.10
2007,10,30,06,09,2.20
2007,10,30,06,10,2.30
2007,10,30,06,11,2.40
2007,10,30,06,12,2.50
2007,10,30,06,13,2.50
2007,10,30,06,14,2.60
2007,10,30,06,15,2.60
2007,10,30,06,16,2.60
2007,10,30,06,17,2.60
2007,10,30,06,18,2.70
2007,10,30,06,19,2.70
2007,10,30,06,20,2.70
2007,10,30,06,21,2.80
2007,10,30,06,22,2.80
2007,10,30,06,23,2.80
2007,10,30,06,24,2.80
2007,10,30,06,25,2.80
2007,10,30,06,26,2.80
2007,10,30,06,27,2.80
2007,10,30,06,28,2.80
2007,10,30,06,29,2.70
2007,10,30,06,30,2.60
2007,10,30,06,31,2.50
2007,10,30,06,32,2.40
2007,10,30,06,33,2.30
2007,10,30,06,34,2.20
2007,10,30,06,35,2.20
2007,10,30,06,36,2.10
2007,10,30,06,37,2.10
2007,10,30,06,38,2.00
2007,10,30,06,39,2.00
2007,10,30,06,40,1.90
2007,10,30,06,41,1.90
2007,10,30,06,42,1.90
2007,10,30,06,43,1.90
2007,10,30,06,44,1.80
2007,10,30,06,45,1.80
2007,10,30,06,46,1.70
2007,10,30,06,47,1.70
2007,10,30,06,48,1.70
2007,10,30,06,49,1.70
2007,10,30,06,50,1.70
2007,10,30,06,51,1.70
2007,10,30,06,52,1.60
2007,10,30,06,53,1.60
2007,10,30,06,54,1.60
2007,10,30,06,55,1.60
2007,10,30,06,56,1.60
2007,10,30,06,57,1.70
2007,10,30,06,58,1.70
2007,10,30,06,59,1.80
2007,10,30,07,00,1.80
2007,10,30,07,01,1.90
2007,10,30,07,02,1.90
2007,10,30,07,03,2.00
2007,10,30,07,04,2.00
2007,10,30,07,05,2.10
2007,10,30,07,06,2.20
2007,10,30,07,07,2.20
2007,10,30,07,08,2.30
2007,10,30,07,09,2.30
2007,10,30,07,10,2.30
2007,10,30,07,11,2.30
2007,10,30,07,12,2.20
2007,10,30,07,13,2.20
2007,10,30,07,14,2.20
2007,10,30,07,15,2.10
2007,10,30,07,16,2.10
2007,10,30,07,17,2.00
2007,10,30,07,18,2.00
2007,10,30,07,19,1.90
2007,10,30,07,20,1.90
2007,10,30,07,21,1.90
2007,10,30,07,22,1.80
2007,10,30,07,23,1.80
2007,10,30,07,24,1.80
2007,10,30,07,25,1.80
2007,10,30,07,26,1.70
2007,10,30,07,27,1.70
2007,10,30,07,28,1.70
2007,10,30,07,29,1.70
2007,10,30,07,30,1.70
2007,10,30,07,31,1.60
2007,10,30,07,32,1.60
2007,10,30,07,33,1.60
2007,10,30,07,34,1.60
2007,10,30,07,35,1.60
2007,10,30,07,36,1.60
2007,10,30,07,37,1.60
2007,10,30,07,38,1.70
2007,10,30,07,39,1.70
2007,10,30,07,40,1.80
2007,10,30,07,41,1.80
2007,10,30,07,42,1.80
2007,10,30,07,43,1.80
2007,10,30,07,44,1.80
2007,10,30,07,45,1.90
2007,10,30,07,46,2.00
2007,10,30,07,47,2.00
2007,10,30,07,48,2.10
2007,10,30,07,49,2.10
2007,10,30,07,50,2.20
2007,10,30,07,51,2.20
2007,10,30,07,52,2.20
2007,10,30,07,53,2.20
2007,10,30,07,54,2.20
2007,10,30,07,55,2.20
2007,10,30,07,56,2.10
2007,10,30,07,57,2.00
2007,10,30,07,58,1.90
2007,10,30,07,59,1.80
2007,10,30,08,00,1.70
2007,10,30,08,01,1.60
2007,10,30,08,02,1.50
2007,10,30,08,03,1.50
2007,10,30,08,04,1.40
2007,10,30,08,05,1.30
2007,10,30,08,06,1.30
2007,10,30,08,07,1.30
2007,10,30,08,08,1.30
2007,10,30,08,09,1.30
2007,10,30,08,10,1.30
2007,10,30,08,11,1.30
2007,10,30,08,12,1.30
2007,10,30,08,13,1.30
2007,10,30,08,14,1.30
2007,10,30,08,15,1.30
2007,10,30,08,16,1.30
2007,10,30,08,17,1.30
2007,10,30,08,18,1.30
2007,10,30,08,19,1.30
2007,10,30,08,20,1.30
2007,10,30,08,21,1.30
2007,10,30,08,22,1.20
2007,10,30,08,23,1.20
2007,10,30,08,24,1.20
2007,10,30,08,25,1.20
2007,10,30,08,26,1.20
2007,10,30,08,27,1.20
2007,10,30,08,28,1.20
2007,10,30,08,29,1.30
2007,10,30,08,30,1.30
2007,10,30,08,31,1.30
2007,10,30,08,32,1.30
2007,10,30,08,33,1.30
2007,10,30,08,34,1.40
2007,10,30,08,35,1.50
2007,10,30,08,36,1.70
2007,10,30,08,37,1.80
2007,10,30,08,38,2.00
2007,10,30,08,39,2.10
2007,10,30,08,40,2.30
2007,10,30,08,41,2.40
2007,10,30,08,42,2.60
2007,10,30,08,43,2.80
2007,10,30,08,44,2.90
2007,10,30,08,45,3.10
2007,10,30,08,46,3.20
2007,10,30,08,47,3.30
2007,10,30,08,48,3.40
2007,10,30,08,49,3.50
2007,10,30,08,50,3.60
2007,10,30,08,51,3.60
2007,10,30,08,52,3.70
2007,10,30,08,53,3.70
2007,10,30,08,54,3.80
2007,10,30,08,55,3.80
2007,10,30,08,56,3.90
2007,10,30,08,57,4.00
2007,10,30,08,58,4.00
2007,10,30,08,59,4.10
2007,10,30,09,00,4.20
2007,10,30,09,01,4.20
2007,10,30,09,02,4.30
2007,10,30,09,03,4.40
2007,10,30,09,04,4.40
2007,10,30,09,05,4.50
2007,10,30,09,06,4.50
2007,10,30,09,07,4.50
2007,10,30,09,08,4.50
2007,10,30,09,09,4.50
2007,10,30,09,10,4.40
2007,10,30,09,11,4.40
2007,10,30,09,12,4.30
2007,10,30,09,13,4.30
2007,10,30,09,14,4.30
2007,10,30,09,15,4.30
2007,10,30,09,16,4.30
2007,10,30,09,17,4.30
2007,10,30,09,18,4.30
2007,10,30,09,19,4.30
2007,10,30,09,20,4.30
2007,10,30,09,21,4.40
2007,10,30,09,22,4.40
2007,10,30,09,23,4.40
2007,10,30,09,24,4.50
2007,10,30,09,25,4.50
2007,10,30,09,26,4.60
2007,10,30,09,27,4.60
2007,10,30,09,28,4.70
2007,10,30,09,29,4.70
2007,10,30,09,30,4.80
2007,10,30,09,31,4.90
2007,10,30,09,32,5.00
2007,10,30,09,33,5.10
2007,10,30,09,34,5.20
2007,10,30,09,35,5.20
2007,10,30,09,36,5.30
2007,10,30,09,37,5.40
2007,10,30,09,38,5.40
2007,10,30,09,39,5.50
2007,10,30,09,40,5.60
2007,10,30,09,41,5.70
2007,10,30,09,42,5.80
2007,10,30,09,43,5.90
2007,10,30,09,44,6.00
2007,10,30,09,45,6.10
2007,10,30,09,46,6.20
2007,10,30,09,47,6.20
2007,10,30,09,48,6.30
2007,10,30,09,49,6.40
2007,10,30,09,50,6.40
2007,10,30,09,51,6.50
2007,10,30,09,52,6.50
2007,10,30,09,53,6.60
2007,10,30,09,54,6.70
2007,10,30,09,55,6.80
2007,10,30,09,56,6.80
2007,10,30,09,57,6.80
2007,10,30,09,58,6.80
2007,10,30,09,59,6.80
2007,10,30,10,00,6.80
2007,10,30,10,01,6.80
2007,10,30,10,02,6.80
2007,10,30,10,03,6.80
2007,10,30,10,04,6.80
2007,10,30,10,05,6.80
2007,10,30,10,06,6.80
2007,10,30,10,07,6.90
2007,10,30,10,08,6.90
2007,10,30,10,09,6.90
2007,10,30,10,10,7.00
2007,10,30,10,11,7.00
2007,10,30,10,12,7.10
2007,10,30,10,13,7.20
2007,10,30,10,14,7.20
2007,10,30,10,15,7.20
2007,10,30,10,16,7.30
2007,10,30,10,17,7.30
2007,10,30,10,18,7.30
2007,10,30,10,19,7.30
2007,10,30,10,20,7.30
2007,10,30,10,21,7.30
2007,10,30,10,22,7.40
2007,10,30,10,23,7.40
2007,10,30,10,24,7.40
2007,10,30,10,25,7.40
2007,10,30,10,26,7.50
2007,10,30,10,27,7.50
2007,10,30,10,28,7.50
2007,10,30,10,29,7.60
2007,10,30,10,30,7.60
2007,10,30,10,31,7.70
2007,10,30,10,32,7.80
2007,10,30,10,33,7.90
2007,10,30,10,34,8.00
2007,10,30,10,35,8.00
2007,10,30,10,36,8.00
2007,10,30,10,37,8.00
2007,10,30,10,38,7.90
2007,10,30,10,39,7.90
2007,10,30,10,40,7.90
2007,10,30,10,41,7.90
2007,10,30,10,42,7.90
2007,10,30,10,43,7.90
2007,10,30,10,44,8.00
2007,10,30,10,45,8.00
2007,10,30,10,46,8.00
2007,10,30,10,47,8.00
2007,10,30,10,48,8.00
2007,10,30,10,49,7.90
2007,10,30,10,50,8.00
2007,10,30,10,51,8.00
2007,10,30,10,52,8.10
2007,10,30,10,53,8.10
2007,10,30,10,54,8.20
2007,10,30,10,55,8.30
2007,10,30,10,56,8.30
2007,10,30,10,57,8.40
2007,10,30,10,58,8.50
2007,10,30,10,59,8.60
2007,10,30,11,00,8.70
2007,10,30,11,01,8.80
2007,10,30,11,02,8.90
2007,10,30,11,03,8.90
2007,10,30,11,04,8.90
2007,10,30,11,05,8.80
2007,10,30,11,06,8.80
2007,10,30,11,07,8.80
2007,10,30,11,08,8.80
2007,10,30,11,09,8.80
2007,10,30,11,10,8.80
2007,10,30,11,11,8.90
2007,10,30,11,12,9.00
2007,10,30,11,13,9.10
2007,10,30,11,14,9.20
2007,10,30,11,15,9.20
2007,10,30,11,16,9.20
2007,10,30,11,17,9.30
2007,10,30,11,18,9.20
2007,10,30,11,19,9.20
2007,10,30,11,20,9.10
2007,10,30,11,21,9.00
2007,10,30,11,22,9.00
2007,10,30,11,23,8.90
2007,10,30,11,24,8.80
2007,10,30,11,25,8.80
2007,10,30,11,26,8.80
2007,10,30,11,27,8.80
2007,10,30,11,28,8.80
2007,10,30,11,29,8.90
2007,10,30,11,30,8.90
2007,10,30,11,31,9.00
2007,10,30,11,32,9.00
2007,10,30,11,33,9.00
2007,10,30,11,34,9.10
2007,10,30,11,35,9.10
2007,10,30,11,36,9.20
2007,10,30,11,37,9.20
2007,10,30,11,38,9.30
2007,10,30,11,39,9.30
2007,10,30,11,40,9.40
2007,10,30,11,41,9.40
2007,10,30,11,42,9.50
2007,10,30,11,43,9.60
2007,10,30,11,44,9.70
2007,10,30,11,45,9.80
2007,10,30,11,46,9.80
2007,10,30,11,47,9.90
2007,10,30,11,48,9.90
2007,10,30,11,49,10.00
2007,10,30,11,50,10.10
2007,10,30,11,51,10.10
2007,10,30,11,52,10.10
2007,10,30,11,53,10.20
2007,10,30,11,54,10.20
2007,10,30,11,55,10.20
2007,10,30,11,56,10.30
2007,10,30,11,57,10.30
2007,10,30,11,58,10.30
2007,10,30,11,59,10.30
2007,10,30,12,00,10.30
2007,10,30,12,01,10.40
2007,10,30,12,02,10.40
2007,10,30,12,03,10.40
2007,10,30,12,04,10.40
2007,10,30,12,05,10.40
2007,10,30,12,06,10.30
2007,10,30,12,07,10.30
2007,10,30,12,08,10.30
2007,10,30,12,09,10.30
2007,10,30,12,10,10.30
2007,10,30,12,11,10.30
2007,10,30,12,12,10.30
2007,10,30,12,13,10.20
2007,10,30,12,14,10.20
2007,10,30,12,15,10.10
2007,10,30,12,16,10.00
2007,10,30,12,17,10.00
2007,10,30,12,18,9.90
2007,10,30,12,19,9.90
2007,10,30,12,20,9.90
2007,10,30,12,21,10.00
2007,10,30,12,22,10.00
2007,10,30,12,23,10.00
2007,10,30,12,24,10.10
2007,10,30,12,25,10.10
2007,10,30,12,26,10.20
2007,10,30,12,27,10.20
2007,10,30,12,28,10.30
2007,10,30,12,29,10.30
2007,10,30,12,30,10.30
2007,10,30,12,31,10.40
2007,10,30,12,32,10.40
2007,10,30,12,33,10.40
2007,10,30,12,34,10.40
2007,10,30,12,35,10.40
2007,10,30,12,36,10.30
2007,10,30,12,37,10.30
2007,10,30,12,38,10.30
2007,10,30,12,39,10.30
2007,10,30,12,40,10.30
2007,10,30,12,41,10.30
2007,10,30,12,42,10.30
2007,10,30,12,43,10.30
2007,10,30,12,44,10.30
2007,10,30,12,45,10.40
2007,10,30,12,46,10.40
2007,10,30,12,47,10.40
2007,10,30,12,48,10.50
2007,10,30,12,49,10.50
2007,10,30,12,50,10.50
2007,10,30,12,51,10.50
2007,10,30,12,52,10.50
2007,10,30,12,53,10.50
2007,10,30,12,54,10.60
2007,10,30,12,55,10.60
2007,10,30,12,56,10.60
2007,10,30,12,57,10.60
2007,10,30,12,58,10.60
2007,10,30,12,59,10.60
2007,10,30,13,00,10.60
2007,10,30,13,01,10.60
2007,10,30,13,02,10.60
2007,10,30,13,03,10.60
2007,10,30,13,04,10.50
2007,10,30,13,05,10.50
2007,10,30,13,06,10.50
2007,10,30,13,07,10.50
2007,10,30,13,08,10.50
2007,10,30,13,09,10.50
2007,10,30,13,10,10.50
2007,10,30,13,11,10.50
2007,10,30,13,12,10.50
2007,10,30,13,13,10.50
2007,10,30,13,14,10.60
2007,10,30,13,15,10.60
2007,10,30,13,16,10.60
2007,10,30,13,17,10.60
2007,10,30,13,18,10.70
2007,10,30,13,19,10.70
2007,10,30,13,20,10.60
2007,10,30,13,21,10.60
2007,10,30,13,22,10.60
2007,10,30,13,23,10.60
2007,10,30,13,24,10.60
2007,10,30,13,25,10.60
2007,10,30,13,26,10.70
2007,10,30,13,27,10.70
2007,10,30,13,28,10.70
2007,10,30,13,29,10.80
2007,10,30,13,30,10.80
2007,10,30,13,31,10.80
2007,10,30,13,32,10.90
2007,10,30,13,33,10.90
2007,10,30,13,34,10.90
2007,10,30,13,35,11.00
2007,10,30,13,36,11.00
2007,10,30,13,37,11.00
2007,10,30,13,38,11.00
2007,10,30,13,39,11.00
2007,10,30,13,40,11.00
2007,10,30,13,41,11.00
2007,10,30,13,42,11.00
2007,10,30,13,43,11.00
2007,10,30,13,44,11.00
2007,10,30,13,45,11.10
2007,10,30,13,46,11.10
2007,10,30,13,47,11.10
2007,10,30,13,48,11.20
2007,10,30,13,49,11.20
2007,10,30,13,50,11.20
2007,10,30,13,51,11.30
2007,10,30,13,52,11.30
2007,10,30,13,53,11.30
2007,10,30,13,54,11.30
2007,10,30,13,55,11.30
2007,10,30,13,56,11.30
2007,10,30,13,57,11.20
2007,10,30,13,58,11.20
2007,10,30,13,59,11.20
2007,10,30,14,00,11.20
2007,10,30,14,01,11.20
2007,10,30,14,02,11.10
2007,10,30,14,03,11.20
2007,10,30,14,04,11.20
2007,10,30,14,05,11.20
2007,10,30,14,06,11.30
2007,10,30,14,07,11.30
2007,10,30,14,08,11.30
2007,10,30,14,09,11.30
2007,10,30,14,10,11.30
2007,10,30,14,11,11.30
2007,10,30,14,12,11.30
2007,10,30,14,13,11.20
2007,10,30,14,14,11.10
2007,10,30,14,15,11.10
2007,10,30,14,16,11.10
2007,10,30,14,17,11.10
2007,10,30,14,18,11.10
2007,10,30,14,19,11.20
2007,10,30,14,20,11.20
2007,10,30,14,21,11.20
2007,10,30,14,22,11.30
2007,10,30,14,23,11.30
2007,10,30,14,24,11.40
2007,10,30,14,25,11.50
2007,10,30,14,26,11.50
2007,10,30,14,27,11.60
2007,10,30,14,28,11.60
2007,10,30,14,29,11.60
2007,10,30,14,30,11.60
2007,10,30,14,31,11.70
2007,10,30,14,32,11.70
2007,10,30,14,33,11.70
2007,10,30,14,34,11.70
2007,10,30,14,35,11.60
2007,10,30,14,36,11.40
2007,10,30,14,37,11.20
2007,10,30,14,38,11.10
2007,10,30,14,39,10.90
2007,10,30,14,40,10.90
2007,10,30,14,41,10.80
2007,10,30,14,42,10.80
2007,10,30,14,43,10.80
2007,10,30,14,44,10.80
2007,10,30,14,45,10.90
2007,10,30,14,46,11.00
2007,10,30,14,47,11.10
2007,10,30,14,48,11.10
2007,10,30,14,49,11.10
2007,10,30,14,50,11.10
2007,10,30,14,51,11.10
2007,10,30,14,52,11.10
2007,10,30,14,53,11.10
2007,10,30,14,54,11.00
2007,10,30,14,55,10.90
2007,10,30,14,56,10.90
2007,10,30,14,57,10.90
2007,10,30,14,58,10.90
2007,10,30,14,59,10.90
2007,10,30,15,00,10.90
2007,10,30,15,01,10.90
2007,10,30,15,02,10.90
2007,10,30,15,03,10.90
2007,10,30,15,04,10.80
2007,10,30,15,05,10.70
2007,10,30,15,06,10.70
2007,10,30,15,07,10.70
2007,10,30,15,08,10.70
2007,10,30,15,09,10.70
2007,10,30,15,10,10.80
2007,10,30,15,11,10.80
2007,10,30,15,12,10.70
2007,10,30,15,13,10.80
2007,10,30,15,14,10.80
2007,10,30,15,15,10.80
2007,10,30,15,16,10.80
2007,10,30,15,17,10.80
2007,10,30,15,18,10.90
2007,10,30,15,19,10.90
2007,10,30,15,20,11.00
2007,10,30,15,21,11.00
2007,10,30,15,22,11.00
2007,10,30,15,23,11.00
2007,10,30,15,24,11.00
2007,10,30,15,25,10.90
2007,10,30,15,26,10.80
2007,10,30,15,27,10.80
2007,10,30,15,28,10.70
2007,10,30,15,29,10.60
2007,10,30,15,30,10.60
2007,10,30,15,31,10.60
2007,10,30,15,32,10.60
2007,10,30,15,33,10.50
2007,10,30,15,34,10.50
2007,10,30,15,35,10.50
2007,10,30,15,36,10.40
2007,10,30,15,37,10.40
2007,10,30,15,38,10.40
2007,10,30,15,39,10.40
2007,10,30,15,40,10.40
2007,10,30,15,41,10.40
2007,10,30,15,42,10.40
2007,10,30,15,43,10.40
2007,10,30,15,44,10.50
2007,10,30,15,45,10.60
2007,10,30,15,46,10.60
2007,10,30,15,47,10.60
2007,10,30,15,48,10.60
2007,10,30,15,49,10.60
2007,10,30,15,50,10.70
2007,10,30,15,51,10.70
2007,10,30,15,52,10.80
2007,10,30,15,53,10.80
2007,10,30,15,54,10.80
2007,10,30,15,55,10.80
2007,10,30,15,56,10.80
2007,10,30,15,57,10.70
2007,10,30,15,58,10.70
2007,10,30,15,59,10.60
2007,10,30,16,00,10.60
2007,10,30,16,01,10.60
2007,10,30,16,02,10.60
2007,10,30,16,03,10.60
2007,10,30,16,04,10.60
2007,10,30,16,05,10.70
2007,10,30,16,06,10.70
2007,10,30,16,07,10.80
2007,10,30,16,08,10.80
2007,10,30,16,09,10.90
2007,10,30,16,10,10.90
2007,10,30,16,11,10.90
2007,10,30,16,12,10.90
2007,10,30,16,13,10.90
2007,10,30,16,14,10.80
2007,10,30,16,15,10.70
2007,10,30,16,16,10.60
2007,10,30,16,17,10.60
2007,10,30,16,18,10.50
2007,10,30,16,19,10.40
2007,10,30,16,20,10.40
2007,10,30,16,21,10.40
2007,10,30,16,22,10.40
2007,10,30,16,23,10.40
2007,10,30,16,24,10.40
2007,10,30,16,25,10.50
2007,10,30,16,26,10.50
2007,10,30,16,27,10.60
2007,10,30,16,28,10.60
2007,10,30,16,29,10.60
2007,10,30,16,30,10.60
2007,10,30,16,31,10.60
2007,10,30,16,32,10.60
2007,10,30,16,33,10.60
2007,10,30,16,34,10.60
2007,10,30,16,35,10.60
2007,10,30,16,36,10.50
2007,10,30,16,37,10.50
2007,10,30,16,38,10.50
2007,10,30,16,39,10.50
2007,10,30,16,40,10.50
2007,10,30,16,41,10.60
2007,10,30,16,42,10.60
2007,10,30,16,43,10.50
2007,10,30,16,44,10.50
2007,10,30,16,45,10.40
2007,10,30,16,46,10.40
2007,10,30,16,47,10.40
2007,10,30,16,48,10.40
2007,10,30,16,49,10.40
2007,10,30,16,50,10.40
2007,10,30,16,51,10.30
2007,10,30,16,52,10.30
2007,10,30,16,53,10.30
2007,10,30,16,54,10.30
2007,10,30,16,55,10.20
2007,10,30,16,56,10.20
2007,10,30,16,57,10.20
2007,10,30,16,58,10.10
2007,10,30,16,59,10.10
2007,10,30,17,00,10.00
2007,10,30,17,01,10.00
2007,10,30,17,02,10.00
2007,10,30,17,03,10.00
2007,10,30,17,04,9.90
2007,10,30,17,05,9.90
2007,10,30,17,06,9.90
2007,10,30,17,07,9.90
2007,10,30,17,08,9.80
2007,10,30,17,09,9.80
2007,10,30,17,10,9.80
2007,10,30,17,11,9.80
2007,10,30,17,12,9.70
2007,10,30,17,13,9.70
2007,10,30,17,14,9.60
2007,10,30,17,15,9.60
2007,10,30,17,16,9.60
2007,10,30,17,17,9.60
2007,10,30,17,18,9.60
2007,10,30,17,19,9.60
2007,10,30,17,20,9.50
2007,10,30,17,21,9.50
2007,10,30,17,22,9.50
2007,10,30,17,23,9.50
2007,10,30,17,24,9.40
2007,10,30,17,25,9.40
2007,10,30,17,26,9.40
2007,10,30,17,27,9.40
2007,10,30,17,28,9.40
2007,10,30,17,29,9.40
2007,10,30,17,30,9.40
2007,10,30,17,31,9.30
2007,10,30,17,32,9.30
2007,10,30,17,33,9.30
2007,10,30,17,34,9.30
2007,10,30,17,35,9.30
2007,10,30,17,36,9.30
2007,10,30,17,37,9.20
2007,10,30,17,38,9.20
2007,10,30,17,39,9.20
2007,10,30,17,40,9.20
2007,10,30,17,41,9.20
2007,10,30,17,42,9.10
2007,10,30,17,43,9.10
2007,10,30,17,44,9.10
2007,10,30,17,45,9.00
2007,10,30,17,46,9.00
2007,10,30,17,47,8.90
2007,10,30,17,48,8.90
2007,10,30,17,49,8.90
2007,10,30,17,50,8.80
2007,10,30,17,51,8.80
2007,10,30,17,52,8.80